Content
SEND FEEDBACK

Daily
Averages
Monthly
Summary
Mexico

SAN MARTINIANO, QUINTANA ROO


Home > North America > Mexico > Quintana Roo
Elevation: 49 feet     Latitude: 20 47N     Longitude: 087 16W

WEATHER
 
SELECT A DAY
Number of Records: 201,891;   Date Range: 2/21/06 - 10/20/14
 
SHARE

PRINT THIS DATA

[ ← Previous Day ]
WEATHER ALMANAC - JULY 8, 2013
[ Next Day → ]
[ °C ]   °F
We're sorry. There is no daily almanac available for San Martiniano, Quintana Roo on July 8, 2013.
WEATHER BY HOUR - JULY 8, 2013
[ °C ]   °F
Local TimeTemperatureDewpointHumidityBarometerVisibilityWind DirectionWind SpeedGust SpeedPrecipitationEventsConditions
12:35 AM80.6 °F75.2 °F84 %30.16 in10.0 miEast (100°)4.6 mphClear
12:55 AM78.8 °F75.2 °F89 %30.16 in10.0 miEast (100°)3.5 mphClear
1:15 AM78.8 °F77.0 °F94 %30.16 in10.0 miEast (100°)4.6 mphClear
1:35 AM78.8 °F78.8 °F100 %30.15 in10.0 miEast (90°)3.5 mphClear
1:55 AM78.8 °F0.0 °F30.15 in10.0 miEast (90°)3.5 mphClear
2:15 AM78.8 °F0.0 °F30.15 in10.0 miCalmClear
2:35 AM78.8 °F0.0 °F30.15 in10.0 miNorth (350°)3.5 mphClear
2:55 AM77.0 °F0.0 °F30.14 in7.0 miCalmClear
3:15 AM77.0 °F0.0 °F30.14 in10.0 miCalmClear
3:35 AM77.0 °F0.0 °F30.14 in10.0 miCalmClear
3:55 AM75.2 °F0.0 °F30.13 in10.0 miENE (70°)3.5 mphClear
4:15 AM77.0 °F0.0 °F30.13 in10.0 miENE (70°)3.5 mphClear
4:35 AM77.0 °F0.0 °F30.13 in10.0 miEast (80°)3.5 mphClear
4:55 AM77.0 °F0.0 °F30.12 in10.0 miCalmClear
5:15 AM77.0 °F0.0 °F30.13 in10.0 miENE (60°)3.5 mphClear
5:35 AM75.2 °F0.0 °F30.13 in10.0 miENE (60°)4.6 mphClear
5:55 AM77.0 °F0.0 °F30.13 in10.0 miENE (70°)3.5 mphClear
6:15 AM77.0 °F0.0 °F30.13 in10.0 miENE (60°)3.5 mphClear
6:55 AM77.0 °F0.0 °F30.14 in7.0 miEast (80°)4.6 mphClear
7:15 AM77.0 °F0.0 °F30.15 in7.0 miEast (90°)4.6 mphClear
7:35 AM77.0 °F0.0 °F30.15 in7.0 miEast (90°)4.6 mphClear
7:55 AM78.8 °F0.0 °F30.15 in10.0 miEast (100°)4.6 mphClear
8:15 AM80.6 °F0.0 °F30.15 in10.0 miEast (90°)6.9 mphClear
8:35 AM82.4 °F0.0 °F30.16 in10.0 miESE (110°)8.1 mphClear
8:55 AM82.4 °F77.0 °F84 %30.16 in10.0 miEast (100°)5.8 mphClear
9:15 AM84.2 °F77.0 °F79 %30.16 in10.0 miEast (100°)4.6 mphClear
9:35 AM84.2 °F75.2 °F74 %30.17 in10.0 miEast (90°)8.1 mphClear
9:55 AM86.0 °F75.2 °F70 %30.18 in10.0 miESE (120°)8.1 mphScattered Clouds
10:15 AM86.0 °F75.2 °F70 %30.18 in10.0 miENE (70°)4.6 mphScattered Clouds
10:35 AM87.8 °F75.2 °F66 %30.19 in10.0 miEast (90°)6.9 mphScattered Clouds
10:55 AM87.8 °F75.2 °F66 %30.19 in10.0 miEast (100°)6.9 mphScattered Clouds
11:15 AM87.8 °F73.4 °F62 %30.18 in10.0 miEast (90°)8.1 mphScattered Clouds
11:35 AM87.8 °F73.4 °F62 %30.18 in10.0 miESE (110°)9.2 mphScattered Clouds
11:55 AM89.6 °F73.4 °F59 %30.18 in10.0 miEast (100°)5.8 mphScattered Clouds
12:15 PM89.6 °F73.4 °F59 %30.18 in10.0 miENE (70°)8.1 mphScattered Clouds
12:35 PM89.6 °F73.4 °F59 %30.18 in10.0 miEast (80°)9.2 mphScattered Clouds
12:55 PM91.4 °F73.4 °F55 %30.18 in10.0 miEast (100°)6.9 mphMostly Cloudy
1:15 PM91.4 °F69.8 °F49 %30.18 in10.0 miEast (90°)6.9 mphMostly Cloudy
1:35 PM91.4 °F69.8 °F49 %30.17 in10.0 miESE (110°)6.9 mphScattered Clouds
1:55 PM93.2 °F69.8 °F46 %30.17 in10.0 miEast (90°)5.8 mphScattered Clouds
2:15 PM91.4 °F69.8 °F49 %30.16 in10.0 miESE (120°)6.9 mphScattered Clouds
2:35 PM93.2 °F69.8 °F46 %30.16 in10.0 miENE (70°)8.1 mphScattered Clouds
2:55 PM93.2 °F69.8 °F46 %30.15 in10.0 miSE (130°)8.1 mphClear
3:15 PM93.2 °F69.8 °F46 %30.14 in10.0 miSE (140°)8.1 mphClear
3:35 PM93.2 °F71.6 °F49 %30.14 in10.0 miESE (120°)5.8 mphScattered Clouds
3:55 PM91.4 °F69.8 °F49 %30.13 in10.0 miEast (90°)4.6 mphMostly Cloudy
4:15 PM91.4 °F69.8 °F49 %30.12 in10.0 miENE (60°)5.8 mphScattered Clouds
4:35 PM91.4 °F68.0 °F46 %30.12 in10.0 miEast (100°)11.5 mphScattered Clouds
4:55 PM91.4 °F68.0 °F46 %30.11 in10.0 miESE (120°)8.1 mphClear
5:15 PM93.2 °F69.8 °F46 %30.11 in10.0 miESE (110°)8.1 mphClear
5:35 PM93.2 °F68.0 °F44 %30.11 in10.0 miESE (120°)10.4 mphClear
5:55 PM91.4 °F68.0 °F46 %30.10 in10.0 miEast (100°)8.1 mphClear
6:15 PM91.4 °F68.0 °F46 %30.10 in10.0 miEast (100°)8.1 mphScattered Clouds
6:35 PM91.4 °F66.2 °F43 %30.11 in10.0 miEast (100°)8.1 mphScattered Clouds
6:55 PM91.4 °F68.0 °F46 %30.10 in10.0 miEast (100°)9.2 mphClear
7:15 PM89.6 °F68.0 °F49 %30.11 in10.0 miESE (120°)6.9 mphClear
7:35 PM87.8 °F68.0 °F52 %30.12 in10.0 miESE (110°)8.1 mphClear
7:55 PM87.8 °F68.0 °F52 %30.12 in10.0 miESE (110°)5.8 mphClear
8:15 PM86.0 °F68.0 °F55 %30.13 in10.0 miEast (100°)5.8 mphClear
8:35 PM84.2 °F69.8 °F62 %30.14 in10.0 miEast (100°)4.6 mphClear
8:55 PM84.2 °F69.8 °F62 %30.15 in10.0 miCalmScattered Clouds
9:15 PM84.2 °F71.6 °F66 %30.16 in10.0 miSouth (170°)3.5 mphMostly Cloudy
9:35 PM84.2 °F71.6 °F66 %30.17 in10.0 miCalmMostly Cloudy
9:55 PM84.2 °F73.4 °F70 %30.17 in10.0 miSouth (180°)3.5 mphOvercast
10:15 PM84.2 °F73.4 °F70 %30.18 in10.0 miCalmOvercast
10:35 PM84.2 °F73.4 °F70 %30.19 in10.0 miESE (110°)4.6 mphMostly Cloudy
10:55 PM82.4 °F71.6 °F70 %30.19 in10.0 miESE (110°)4.6 mphScattered Clouds
11:15 PM82.4 °F71.6 °F70 %30.19 in10.0 miESE (110°)4.6 mphClear
11:35 PM80.6 °F71.6 °F74 %30.19 in10.0 miSE (130°)3.5 mphClear
11:55 PM80.6 °F73.4 °F79 %30.19 in10.0 miESE (120°)3.5 mphClear
Hourly data recorded from KPCM, located miles away from San Martiniano, Quintana Roo







STORIES FROM OUR PARTNERS